ONEWEB-0032 (45141 NORAD) Tracking and Keplerian Element Data

This shows tracking and keplerian element data for the satellite.

Feedback or suggestion? Click here.




ElementValue
Catalog45141
NameONEWEB-0032
Epoch Orbit3909
Epoch Day298.25001157
Epoch Year2020
RAAN86.2671
Inclination87.9446
Eccentricity0.0021211
Argument of Perigee123.9395
Mean Anonmoly85.9271
Mean Motion13.32265008
Decay Rate1.4E-07
L11 45141U 20008L 20298.25001157 .00000014 00000-0 00000+0 0 9991
L22 45141 87.9446 86.2671 0021211 123.9395 85.9271 13.32265008 39097

Live tracking and technical data element details for ONEWEB-0032 (NORAD 45141). ONEWEB-0032 can be tracked NOW for your location showing map with azimuth and elevation plus other details from your city location.

Track the satellite on the map from your city or location and see movement details for azimuth, elevation, latitude, longitude, range, height, and movement on the map or in text.







IsCatalogInMostPopularTable: catalog: 45141, numindb: 62
Update: records affected: 1



GetName: 45141 ONEWEB-0032

Hit Count: updated at: Sat, 24 Oct 2020 23:49:09 GMT